EHI
0 0 0 0 0 0 0 0 0 0 0 0 0 0 0 0 0 0 0 0 0 0 0 0 0 0 0 0 0 0 0 0 0 0 0 0 0 0 0 0 0 0 0
0 0 0 0 0 0 0 0 0 0 0 0 0 0 0 0 0 0 0 0 0 0 0 0 0 0 0 0 0 0 0 0 0 0 0 0 0 0 0 0 0 0 0
0 0 0 0 0 0 0 0 0 0 0 0 0 0 0 0 0 0 0 0 0 0 0 0 0 0 0 0 0 0 0 0 0 0 0 0 0 0 0 0 0 0 0
0 0 0 0 0 0 0 0 0 0 0 0 0 0 0 0 0 0 0 0 0 0 0 0 0 0 0 0 0 0 0 0 0 0 0 0 0 0 0 0 0 0 0
0 0 0 0 0 0 0 0 0 0 0 0 0 0 0 0 0 0 0 0 0 0 0 0 0 0 0 0 0 0 0 0 0 0 0 0 0 0 0 0 0 0 0
0 0 0 0 0 0 0 0 0 0 0 0 0 0 0 0 0 0 0 0 0 0 0 0 0 0 0 0 0 0 0 0 0 0 0 0 0 0 0 0 0 0 0
0 0 0 0 0 0 0 0 0 0 0 0 0 0 0 0 0 0 0 0 0 0 0 0 0 0 0 0 0 0 0 0 0 0 0 0 0 0 0 0 0 0 0
0 0 0 0 0 0 0 0 0 0 0 0 0 0 0 0 0 0 0 0 0 0 0 0 0 0 0 0 0 0 0 0 0 0 0 0 0 0 0 0 0 0 0
0 0 0 0 0 0 0 0 0 0 0 0 0 0 0 0 0 0 0 0 0 0 0 0 0 0 0 0 0 0 0 0 0 0 0 0 0 0 0 0 0 0 0
0 0 0 0 0 0 0 0 0 0 0 0 0 0 0 0 0 0 0 0 0 0 0 0 0 0 0 0 0 0 0 0 0 0 0 0 0 0 0 0 0 0 0
0 0 0 0 0 0 0 0 0 0 0 0 0 0 0 0 0 0 0 0 0 0 0 0 0 0 0 0 0 0 0 0 0 0 0 0 0 0 0 0 0 0 0
0 0 0 0 0 0 0 0 0 0 0 0 0 0 0 0 0 0 0 0 0 0 0 0 0 0 0 0 0 0 0 0 0 0 0 0 0 0 0 0 0 0 0
0 0 0 0 0 0 0 0 0 0 0 0 0 0 0 0 0 0 0 0 0 0 0 0 0 0 0 0 0 0 0 0 0 0 0 0 0 0 0 0 0 0 0
0 0 0 0 0 0 0 0 0 0 0 0 0 0 0 0 0 0 0 0 0 0 0 0 0 0 0 0 0 0 0 0 0 0 0 0 0 0 0 0 0 0 0
0 0 0 0 0 0 0 0 0 0 0 0 0 0 0 0 0 0 0 0 0 0 0 0 0 0 0 0 0 0 0 0 0 0 0 0 0 0 0 0 0 0 0
0 0 0 0 0 0 0 0 0 0 0 0 0 0 0 0 0 0 0 0 0 0 0 0 0 0 0 0 0 0 0 0 0 0 0 0 0 0 0 0 0 0 0
0 0 0 0 0 0 0 0 0 0 0 0 0 0 0 0 0 0 0 0 0 0 0 0 0 0 0 0 0 0 0 0 0 0 0 0 0 0 0 0 0 0 0
0 0 0 0 0 0 0 0 0 0 0 0 0 0 0 0 0 0 0 0 0 0 0 0 0 0 0 0 0 0 0 0 0 0 0 0 0 0 0 0 0 0 0
0 0 0 0 0 0 0 0 0 0 0 0 0 0 0 0 0 0 0 0 0 0 0 0 0 0 0 0 0 0 0 0 0 0 0 0 0 0 0 0 0 0 0
0 0 0 0 0 0 0 0 0 0 0 0 0 0 0 0 0 0 0 0 0 0 0 0 0 0 0 0 0 0 0 0 0 0 0 0 0 0 0 0 0 0 0
0 0 0 0 0 0 0 0 0 0 0 0 0 0 0 0 0 0 0 0 0 0 0 0 0 0 0 0 0 0 0 0 0 0 0 0 0 0 0 0 0 0 0
0 0 0 0 0 0 0 0 0 0 0 0 0 0 0 0 0 0 0 0 0 0 0 0 0 0 0 0 0 0 0 0 0 0 0 0 0 0 0 0 0 0 0
0 0 0 0 0 0 0 0 0 0 0 0 0 0 0 0 0 0 0 0 0 0 0 0 0 0 0 0 0 0 0 0 0 0 0 0 0 0 0 0 0 0 0
0 0 0 0 0 0 0 0 0 0 0 0 0 0 0 0 0 0 0 0 0 0 0 0 0 0 0 0 0 0 0 0 0 0 0 0 0 0 0 0 0 0 0
0 0 0 0 0 0 0 0 0 0 0 0 0 0 0 0 0 0 0 0 0 0 0 0 0 0 0 0 0 0 0 0 0 0 0 0 0 0 0 0 0 0 0
0 0 0 0 0 0 0 0 0 0 0 0 0 0 0 0 0 0 0 0 0 0 0 0 0 0 0 0 0 0 0 0 0 0 0 0 0 0 0 0 0 0 0
Wind_Speed
2 2 1 1 1 1 0 1 1 1 1 1 1 1 1 1 1 1 1 1 2 2 2 2 3 3 2 2 2 2 3 4 6 6 4 5 5 6 7 6 6 6 7
2 2 1 1 1 1 1 1 1 1 1 1 1 1 1 1 1 1 2 2 2 3 3 3 4 3 3 3 3 3 3 4 5 8 6 5 5 6 6 7 7 6 6
1 1 1 1 1 1 1 1 1 1 1 1 1 1 1 2 1 2 2 2 2 3 3 4 4 4 4 3 3 3 3 4 4 6 7 5 5 5 6 7 7 6 7
2 1 2 2 1 1 1 1 1 1 0 1 1 1 2 2 2 2 2 2 3 3 4 4 4 4 5 5 4 4 4 4 5 5 6 6 5 5 5 6 7 5 6
2 2 2 2 1 1 1 1 1 1 1 1 1 2 2 2 2 2 2 3 3 3 4 4 4 5 6 5 5 5 5 4 5 5 6 6 6 6 6 6 7 7 6
2 3 2 1 1 1 1 1 1 1 1 1 1 2 2 2 4 5 3 3 4 4 4 4 5 5 6 8 8 8 7 6 6 6 6 7 8 7 6 6 7 8 7
3 2 2 1 1 2 1 1 2 2 1 2 2 2 3 4 6 6 5 3 4 4 5 4 4 4 5 5 7 9 8 9 9 7 8 8 8 7 7 8 7 7 8
3 3 2 2 2 2 1 2 2 2 2 2 3 3 3 4 6 6 6 4 4 4 4 4 5 5 5 6 6 7 6 6 8 7 7 7 7 7 6 7 8 7 7
3 3 3 2 2 2 3 3 3 2 2 3 3 3 3 5 6 7 6 3 4 5 5 5 5 5 8 9 7 7 7 6 7 9 9 9 11 10 8 5 4 5 6
4 4 3 2 3 4 4 3 2 2 3 3 3 3 4 5 6 7 6 3 4 4 4 5 6 7 9 10 7 6 7 7 6 6 7 8 7 7 8 5 4 5 5
3 2 2 2 3 3 3 2 2 2 2 3 4 4 4 4 6 7 7 3 4 4 4 4 4 9 11 11 9 6 8 8 5 5 5 5 4 4 4 4 4 5 5
2 2 2 2 2 2 2 2 2 2 2 3 3 4 3 4 5 7 8 8 7 5 5 4 5 9 11 11 8 8 10 7 3 4 4 5 4 4 4 5 5 5 6
2 2 2 2 2 2 2 3 2 2 2 3 3 4 4 3 4 7 8 9 9 5 4 7 9 10 10 7 8 9 6 3 3 4 5 5 5 5 5 4 4 5 6
2 2 2 2 2 2 2 2 3 3 3 4 4 4 4 4 3 3 3 4 5 5 4 5 8 9 7 6 5 4 3 3 4 4 5 5 4 4 4 4 4 4 4
2 2 2 2 2 2 3 3 4 4 4 5 4 4 4 5 6 7 4 3 3 3 3 2 3 3 4 4 3 3 3 3 4 4 4 4 5 4 4 4 4 3 4
2 2 2 2 2 2 3 4 6 6 7 9 8 6 5 7 8 8 8 7 6 5 2 3 4 4 4 5 5 5 4 4 4 4 4 4 5 5 5 4 4 4 5
4 3 2 2 2 2 3 3 4 5 7 8 9 9 8 8 8 8 8 7 6 4 3 4 4 4 5 5 5 5 5 5 4 4 5 4 5 5 5 5 5 5 5
4 4 3 3 3 3 3 3 3 3 4 4 6 9 9 9 9 8 7 5 4 3 4 4 5 5 5 5 5 5 5 4 4 4 5 4 4 4 5 5 5 5 6
4 3 3 3 3 3 3 3 3 4 4 4 4 5 6 8 8 7 5 3 4 5 4 5 5 5 5 5 5 5 5 5 5 5 5 5 4 4 5 5 5 7 6
3 4 3 3 3 3 3 3 3 3 4 4 4 4 3 3 4 5 4 4 5 5 5 5 5 5 5 5 5 4 4 5 5 5 5 4 4 4 5 6 5 5 5
3 3 4 3 3 3 3 3 4 4 4 5 5 5 6 4 5 5 5 5 5 6 5 5 5 5 5 4 4 5 5 5 5 5 5 4 4 4 5 5 5 5 5
3 3 3 3 3 3 3 3 3 4 5 5 5 5 7 4 4 5 5 5 5 5 4 4 5 5 5 4 4 4 5 5 5 5 5 4 4 4 4 4 5 5 5
3 3 3 3 3 3 3 3 4 4 5 5 4 4 4 4 5 5 5 5 4 4 3 3 4 4 4 4 4 5 6 6 6 5 5 5 5 4 4 5 5 5 5
4 4 4 3 3 3 4 4 4 4 4 4 4 4 5 5 5 6 5 4 4 4 4 4 5 6 7 6 5 5 5 6 5 5 6 6 5 4 4 4 5 6 6
3 4 4 4 4 4 4 4 4 4 4 4 4 4 5 5 5 5 4 4 4 4 5 5 4 5 7 8 7 6 7 8 7 5 4 4 5 5 5 5 4 5 5
4 4 4 3 4 4 4 4 4 4 4 4 4 4 5 5 5 5 4 4 4 5 5 5 6 7 8 7 8 9 9 8 7 6 4 4 4 4 4 4 5 4 5
Wind_Direction
245 239 240 252 238 195 189 240 267 300 304 306 316 340 343 342 341 350 330 327 322 320 317 309 300 294 289 285 276 271 271 267 273 286 289 298 299 305 308 302 298 297 298
245 227 223 235 226 214 242 261 270 283 305 302 305 337 332 330 324 316 308 314 304 302 300 298 294 295 290 285 280 276 272 269 272 285 293 295 293 298 299 297 304 303 297
236 218 219 226 225 235 254 271 278 278 309 316 311 301 303 307 306 303 303 305 298 293 294 292 290 291 291 289 282 278 278 281 274 280 289 294 293 299 301 299 296 293 299
216 218 232 239 233 243 255 262 257 244 269 297 298 287 288 295 295 296 300 303 301 299 297 292 290 287 284 285 283 278 278 283 283 282 287 294 296 296 295 300 301 298 300
213 227 240 243 228 226 241 274 277 274 273 271 288 299 300 296 288 302 307 302 300 302 302 298 294 292 287 285 285 284 284 283 284 285 289 295 297 306 305 302 300 305 297
214 236 245 231 228 240 252 251 270 274 298 300 287 291 297 294 296 297 299 302 301 297 297 299 298 293 293 294 294 293 289 285 285 285 287 290 295 300 303 303 305 310 302
219 237 241 223 234 250 254 256 263 270 267 272 276 277 282 282 290 295 296 300 296 292 290 295 297 298 292 291 294 296 295 289 282 279 282 284 291 294 296 296 293 292 289
221 236 241 225 233 245 244 253 262 265 261 264 268 266 275 283 291 295 301 294 288 284 283 284 288 293 294 297 294 292 289 287 286 278 274 279 283 287 282 284 287 290 288
233 241 244 231 233 239 244 252 256 257 265 267 276 265 270 282 286 292 299 296 288 290 289 289 286 289 294 301 302 296 295 294 296 290 289 293 295 298 301 299 294 296 294
241 243 239 228 229 239 245 253 260 254 260 270 275 271 264 270 281 288 293 286 289 295 295 292 286 292 300 304 300 295 294 296 303 305 301 300 298 294 296 285 278 278 287
241 240 240 235 236 242 252 261 260 259 272 273 277 280 271 268 278 282 286 286 281 289 291 293 291 295 298 300 301 295 294 306 306 298 294 295 297 292 285 282 279 273 271
217 227 238 241 242 242 243 259 256 245 258 269 275 284 279 274 274 280 283 282 286 282 284 289 291 298 301 302 301 301 308 314 309 302 296 291 288 287 289 287 282 278 272
216 236 247 253 250 244 234 242 249 240 246 261 264 272 281 280 278 278 281 284 285 283 282 289 297 301 305 302 301 308 314 307 299 293 286 285 285 287 292 292 288 286 284
231 249 248 248 259 255 247 239 238 238 243 252 258 266 275 281 278 281 280 281 282 284 288 297 298 299 299 303 308 308 302 289 283 280 286 292 297 296 293 294 292 302 300
239 250 254 247 250 257 252 246 246 242 236 245 249 252 261 270 272 281 291 284 287 287 317 310 300 299 296 297 298 294 293 293 287 285 290 296 297 297 296 298 291 293 283
239 245 243 249 253 257 269 284 272 269 274 268 265 265 268 274 289 284 282 286 290 295 301 279 279 281 284 288 290 292 287 283 286 288 284 282 286 290 294 296 289 283 284
233 241 239 238 244 249 253 261 285 293 279 278 278 276 275 280 282 285 288 289 283 278 260 265 269 272 276 278 279 280 281 283 286 284 283 283 284 285 288 290 291 289 286
229 231 229 232 236 240 243 249 254 266 286 288 281 278 283 286 285 284 287 290 278 267 256 261 265 268 270 272 275 278 282 285 281 279 280 280 280 283 285 283 283 283 287
223 226 225 230 231 235 239 243 248 251 261 277 293 290 287 289 287 284 278 253 258 264 262 263 264 266 269 269 272 274 275 275 276 277 274 274 274 276 280 283 285 285 284
227 231 219 222 225 229 232 237 246 250 259 266 270 276 289 287 276 272 253 247 250 257 259 262 265 264 265 266 269 270 273 274 273 269 271 272 272 272 275 278 280 286 286
223 226 218 222 225 227 229 235 242 247 255 262 265 267 275 263 259 262 262 255 251 255 259 261 264 265 265 265 265 265 265 268 268 265 267 268 269 272 274 275 278 280 285
214 219 218 224 228 229 234 237 240 245 253 261 274 277 272 268 266 269 266 264 263 260 256 255 259 257 254 255 258 262 265 266 266 265 265 266 267 270 273 275 279 284 288
211 219 225 228 227 230 234 235 238 244 253 260 268 275 271 266 268 269 271 275 276 276 275 264 263 267 265 260 255 251 255 258 257 255 259 262 264 265 268 272 276 284 288
210 216 223 227 226 228 234 240 242 247 252 258 261 261 263 266 269 271 273 278 282 282 279 274 269 269 273 275 269 261 261 264 260 252 249 255 260 264 265 270 273 277 280
209 216 221 223 225 230 236 243 246 248 251 255 259 263 266 268 270 274 277 278 280 282 284 283 281 282 281 281 281 278 275 276 271 261 253 251 252 254 258 265 270 277 282
214 219 225 226 227 229 232 239 246 249 254 258 260 261 262 264 267 269 272 276 282 286 287 284 281 284 287 285 285 287 284 283 281 269 254 248 249 257 260 265 269 275 279